Weather in Gorodeya

Belarus     53˚18′54″N   26˚32′25″E
temp.,
°C
wind,
m/s
gust,
m/s
humid.,
%
clouds,
%
prec.,
mm/h
press.,
hPa
HPBL,
m
3 december, thu
thu300:00−4˚se369776 0.1 1026202
03:00−4˚se369778 0.3 1025200
06:00−5˚se359786 0.1 1024126
09:00−3˚sse499591 0.3 1024449
12:00−1˚sse6109394 0.1 1023693
15:00−1˚sse6109096 0.2 1022795
18:00−1˚sse6119399 0.1 1021624
21:00sse7129299 0.1 1020674
4 december, fri
fri400:00sse61390100 0.0 1019767
03:00+1˚sse61492100 0.0 1018695
06:00+1˚se71494100 0.0 1017691
09:00+2˚se81595100 0.0 1017676
12:00+2˚se81596100 0.0 1017751
15:00+3˚se71591100 0.0 1016728
18:00+2˚se71591100 0.0 1017683
21:00+3˚se81692100 0.0 1017607
5 december, sat
sat500:00+4˚se91792100 0.0 1017580
03:00+4˚se91791100 0.0 1018573
06:00+4˚se8159292 0.0 1018563
09:00+4˚se8159296 0.0 1020507
12:00+4˚se81590100 0.0 1021593
15:00+5˚se71487100 0.0 1021661
18:00+5˚sse71486100 0.0 1022628
21:00+4˚se81485100 0.0 1023683
6 december, sun
sun600:00+4˚se81485100 0.0 1024708
03:00+2˚se8148699 0.0 1025693
06:00+1˚se8158784 0.0 1025555
09:00se8158860 0.0 1026515
12:00+1˚se9157731 0.0 1026642
15:00+2˚se9167015 0.0 1026710
18:00se816690 0.0 1026609
21:00−1˚se917550 0.0 1026541
7 december, mon
mon700:00−2˚se917560 0.0 1027577
03:00−2˚se916600 0.0 1026623
06:00−3˚ese1017620 0.0 1025630
09:00−3˚se917600 0.0 1025730
12:00−2˚se916570 0.0 1025798
15:00−1˚se914550 0.0 1025866
18:00−2˚se91656100 0.0 1025713
21:00−2˚se91657100 0.0 1025678